Погода в Анне

Погода в Анне : погода сейчас, прогноз погоды и архив. Всё, что Вы хотите узнать о погоде в Анне!

Хотите узнать прогноз погоды в Анне? Тогда Вам сюда: Погода в Анне

Поиск расширенной информации на нашем сайте:

Другие новости

Новости СМИ2

Главная страница сайта

Новости сайта

02.10.2013

Напоминаем, что на нашем новом сайте вы можете получить высокодетализированные прогнозы погоды по пунктам России, СНГ и мира (включающие важные для авиации метеовеличины, такие как направление и скорость ветра, видимость, явления погоды, количество и форма облачности, нижняя и верхняя граница облачности), а также ознакомиться с разнообразными материалами по авиационной метеорологии и подборкой полезных ссылок на эту тему.

Сайт Метеоцентр.Азия посвящён разработке технологий оптимизации авиаметеорологического обслуживания, включая проектирование и перспективное создание нескольких автоматизированных авиаметеорологических систем:
- система выпуска высокодетальных прогностических карт явлений погоды для нижнего воздушного пространства по России и ближнему зарубежью;
- система верификации прогнозов TAF (выпускаемых синоптиками официальных АМСГ РФ и ближнего зарубежья) и AUTOTAF (выпускаемых сайтом Метеоцентр.Азия) - выявление ошибок, онлайн-сопоставление с фактической погодой METAR, автоматическое внесение коррективов в прогнозы при резком отклонении фактической погоды от прогноза, подсчёт оправдываемости прогнозов по элементам и в целом;
- система обработки, анализа и отображения авиаметеорологической информации для применения провайдерами метеорологической информации.

Рекомендуем: Здесь яблочный уксус для похудения купить можно дешевле, чем в Китае!

Погода в Анне - сегодня

Время (UTC), дата Ветер
(°,м/с) 
Видим.   Явления Облачность Т
(°С)
Тd
(°С)
f(%) Тe
(°С)
Pmin
(гПа)
dP
(гПа)
Po
(мм)
O2
(г/м3)
Тmin Tmax R s Состояние
почвы
09 18.01.17 290 (З) 1000 м  в посл. час туман  10/10 300 м 
[St]
-7.3 -8.2 93 -7  1036.6  0.5  762  316           
12 18.01.17 280 (З) 4000 м  дымка{туман}  9/9 600 м 
[Sc]
-6 -7.1 92 -7  1036.3  -0.3  762  315           
15 18.01.17 250 (З) 10 км    10/10 600 м 
[Sc]
-6.2 -7.4 91 -6  1037.3  0.9  763  315    -5.8       
18 18.01.17 270 (З) 10 км    6/6 600 м 
[Sc]
-9.7 -10.9 91 -11  1037.9  0.2  763  320           
21 18.01.17 280 (З) 2000 м  дымка  10/10 600 м 
[St]
-10.1 -11.4 90 -12  1037.5  -0.4  763  320           
00 19.01.17 тихо ()   2000 м  дымка  10/10 600 м 
[St]
-9.3 -10.9 88 -9  1036.8  -0.6  762  319           
03 19.01.17 240 (ЮЗ) 10 км    10/10 600 м 
[Sc]
-8.1 -9.5 90 -10  1035.9  -0.7  762  317  -11.4      38  равномерный
сухой снег
100% 
06 19.01.17 270 (З) 10 км    9/9 600 м 
[Sc]
-7 -8.7 88 -8  1035.6  -0.1  762  316           
09 19.01.17 250 (З) 10 км    ясно 
-7.2 -10.2 79 -10  1034.9  -0.7  761  316           
12 19.01.17 250 (З) 10 км    ясно 
-6.7 -10.4 75 -10  1033.3  -1.6  760  315           
15 19.01.17 250 (З) 10 км    3/0 верхняя 
[Ci sp]
-12 -14.7 80 -15  1032.6  -1.2  759  321    -6.7       
18 19.01.17 260 (З) 10 км    10/10 600 м 
[Sc]
-11.7 -13 90 -16  1030.9  -1.6  758  320           
21 19.01.17 240 (ЮЗ) 10 км    10/10 300 м 
[St]
-11.4 -12.7 90 -16  1028.7  -2.3  756  319           
00 20.01.17 250 (З) 10 км    10/10 300 м 
[St]
-11.8 -13.8 85 -17  1025.9  -2.7  754  319           
03 20.01.17 240 (ЮЗ) 7-10{12}  10 км    10/10 300 м 
[St]
-11.2 -13.2 85 -17  1023.1  -2.7  752  317  -12      38  равномерный
сухой снег
100% 
06 20.01.17 250 (З) 6-10{12}  10 км  позёмок  10/10 300 м 
[St]
-8.9 -10.4 89 -14  1021  -1.8  751  314           
09 20.01.17 250 (З) 5{11}  10 км  слаб. снег  10/10 300 м 
[Frnb|Ns]
-7 -9.5 82 -11  1019.6  -1.2  750  311           
12 20.01.17 260 (З) 5{10}  10 км  {снег}  10/10 300 м 
[St]
-5.6 -7.4 87 -10  1018.2  -1.4  749  309           
15 20.01.17 280 (З) 10 км    10/10 600 м 
[Sc]
-4.3 -6.2 87 -9  1018.1  749  307    -4.3  0.3     
18 20.01.17 290 (З) 10 км    10/10 600 м 
[Sc]
-3.7 -5.2 89 -7  1018.7  0.6  749  307           
21 20.01.17 250 (З) 10 км    10/10 300 м 
[St]
-3.3 -5 88 -5  1018  -0.5  749  306           
00 21.01.17 270 (З) 10 км    10/10 300 м 
[St]
-3.5 -5.3 87 -6  1017.6  -0.6  748  306           
03 21.01.17 270 (З) 10 км    9/9 600 м 
[Sc]
-3.6 -5.1 89 -6  1015.8  -1.7  747  306  -4.3      36  равномерный
сухой снег
100% 
06 21.01.17 250 (З) 10 км    10/10 600 м 
[St]
-3.4 -5.2 87 -6  1014.4  -1.2  746  305           
09 21.01.17 250 (З) 10 км  слаб. снег  10/0 средняя 
[As op]
-2.2 -4.1 87 -5  1012.7  -1.7  745  303           
Время (UTC), дата Ветер
(°,м/с) 
Видим.   Явления Облачность Т
(°С)
Тd
(°С)
f(%) Тe
(°С)
Pmin
(гПа)
dP
(гПа)
Po
(мм)
O2
(г/м3)
Тmin Tmax R s Состояние
почвы

Для получения пояснительной информации подведите курсор к названию столбца.

ПОГОДА в Анне - архив

Всё, что Вы хотите узнать о погоде в Анне - удобно и подробно!

Выберите нужную дату (начиная с 1 января 2015* года) и нажмите кнопку "Найти".
Будут отображены архивные сводки погоды по пункту Анна, начиная с указанной даты.


Отображать данные в формате CSV (для использования в таблицах Excel)


Внимание! Наш архив погоды предназначен исключительно для личного некоммерческого использования в познавательных целях. Если Вам необходимы официальные справки о состоянии погоды (для производственных, юридических, коммерческих и т.п. целей), обращайтесь в органы Росгидромета.

*Примечание: данная дата относится к архиву по метеостанциям СССР (Россия, СНГ, Балтия).
Архив по метеостанциям Зарубежной Европы и Азии (кроме Китая) хранится 10 дней, по другим регионам земного шара (Китай, Африка, Америка, Австралия, Океания) - 1 день.

Анна - район местоположения метеостанции


Название, широта, долгота, высота метеостанции:
Анна 51.5°ш. 40.4°д. 154 м над ур. моря [Российская Федерация]

Дополнительная информация

В oтличие oт бoльшинства пoгoдных сайтoв мы публикуем пoдрoбную метеoинфoрмацию в детальнoм прoфессиoнальнoм фoрмате.

Характеристики температуры и влажнoсти вoздуха измеряются на высoте 2 м в тени вдали oт зданий и деревьев.
Скoрoсть ветра измеряется на высoте 10 м (на урoвне рoста челoвека скoрoсть ветра ниже в 1.5-2 раза). Если метеoстанция нахoдится в гoрoде или в лесу, тo скoрoсть ветра занижена на 2-4 м/с пo сравнению с oткрытым местoм. Скoрoсть ветра над акватoриями крупных рек и oзёр, а также на вершинах хoлмoв на 2-5 м/с выше, чем в oбычных услoвиях.
Атмoсфернoе давление в разных тoчках местнoсти мoжет значительнo oтличаться oт давления на метеoстанции, в зависимoсти oт услoвий рельефа (при пoдъёме на 10 м давление пoнижается примернo на 1 мм рт.ст.).